Hourly Data Report for July 21, 2021

VINELAND STATION RCS
ONTARIO
Current Station Operator: ECCC - MSC

43°11'00.000" N
79°24'00.000" W
79.20 m
6139148
71171
XVN

Download Data

Hourly Data (July 2021)
Hourly Data Report for July 21, 2021
TIME
LST
Temp Definition
°C
Dew Point Definition
°C
Rel Hum Definition
%
Precip. Amount Definition
mm

Wind Dir Definition
10's deg

Wind Spd Definition
km/h
Visibility Definition
km
Stn Press Definition
kPa
Hmdx Definition


Wind Chill Definition


Weather Definition


00:00 20.2 17.9 87 LegendMM 34 15   100.38 26   LegendNANA
01:00 20.4 17.2 82 LegendMM 4 23   100.36 26   LegendNANA
02:00 19.8 16.9 83 LegendMM 3 23   100.37     LegendNANA
03:00 19.1 16.2 83 LegendMM 3 22   100.39     LegendNANA
04:00 18.0 15.5 85 LegendMM 4 17   100.43     LegendNANA
05:00 18.3 14.7 79 LegendMM 1 19   100.48     LegendNANA
06:00 18.0 14.2 79 LegendMM 1 19   100.54     LegendNANA
07:00 19.1 14.0 72 LegendMM 2 18   100.60     LegendNANA
08:00 18.5 14.6 78 LegendMM 36 14   100.66     LegendNANA
09:00 19.8 14.7 72 LegendMM 36 13   100.70     LegendNANA
10:00 21.1 15.1 68 LegendMM 36 15   100.73 25   LegendNANA
11:00 21.7 14.1 62 LegendMM 36 11   100.76 25   LegendNANA
12:00 22.3 13.4 57 LegendMM 33 10   100.78 25   LegendNANA
13:00 22.9 11.8 50 LegendMM 35 5   100.76 25   LegendNANA
14:00 23.6 10.6 44 LegendMM 35 4   100.74 25   LegendNANA
15:00 24.3 11.7 45 LegendMM 34 3   100.74 26   LegendNANA
16:00 24.3 10.0 40 LegendMM 35 4   100.74 26   LegendNANA
17:00 24.5 9.3 38 LegendMM 35 3   100.72 25   LegendNANA
18:00 23.8 10.1 42 LegendMM 30 5   100.74 25   LegendNANA
19:00 23.3 11.0 46 LegendMM 31 3   100.75 25   LegendNANA
20:00 21.8 14.2 62 LegendMM 36 16   100.81 25   LegendNANA
21:00 21.1 13.8 63 LegendMM 36 19   100.91     LegendNANA
22:00 20.5 12.2 59 LegendMM 35 18   100.97     LegendNANA
23:00 20.1 11.9 59 LegendMM 34 15   100.99     LegendNANA

Notes on Data Quality.

Legend

  • E = Estimated
  • M = Missing
  • NA = Not Available*
  • [empty] = Indicates an unobserved value
Date modified: